Change the Weather History Date:

Monday, January 13, 2014

  Actual Average (KP67) Record (KP67)
Temperature  
Mean Temperature 22 °F -  
Max Temperature 30 °F 13 °F 0 °F (1997)
Min Temperature 15 °F -1 °F -16 °F (1998)
Degree Days  
Heating Degree Days 42    
Moisture  
Dew Point 20 °F    
Average Humidity 86    
Maximum Humidity 100    
Minimum Humidity 64    
Precipitation  
Precipitation 0.00 in - - ()
Sea Level Pressure  
Sea Level Pressure 29.61 in    
Wind  
Wind Speed 9 mph (West)    
Max Wind Speed 16 mph    
Max Gust Speed 18 mph    
Visibility 9 miles    
Events      
Averages and records for this station are not official NWS values.
T = Trace of Precipitation, MM = Missing Value Source: NWS Daily Summary

Daily Weather History Graph

Daily Weather History Graph

Search for Another Location

Airport or City:

Trip Planner

Search our weather history database for the weather conditions in past years. The results will help you decide how hot, cold, wet, or windy it might be!

Date:

Astronomy

Jan. 13, 2014 Rise Set
Actual Time 8:10 AM CST 5:08 PM CST
Civil Twilight 7:36 AM CST 5:42 PM CST
Nautical Twilight 6:59 AM CST 6:19 PM CST
Astronomical Twilight 6:23 AM CST 6:55 PM CST
Moon 3:25 PM CST (1/13) 5:59 AM CST (1/13)
Length of Visible Light 10h 06m
Length of Day
8h 58m
Waxing Gibbous, 95% of the Moon is Illuminated
Jan 13
Waxing Gibbous
Jan 15
Full
Jan 23
Last Quarter
Jan 30
New
Feb 6
First Quarter

Hourly Weather History & Observations

Time (CST) Temp. Windchill Dew Point Humidity Pressure Visibility Wind Dir Wind Speed Gust Speed Precip Events Conditions
12:15 AM 30.2 °F 20.8 °F 23.0 °F 75% 29.65 in 10.0 mi NW 11.5 mph - 0.00 in   Mostly Cloudy
12:35 AM 30.2 °F 21.3 °F 23.0 °F 75% 29.64 in 10.0 mi NW 10.4 mph - 0.00 in   Overcast
12:55 AM 28.4 °F 19.1 °F 23.0 °F 80% 29.64 in 10.0 mi NW 10.4 mph - 0.00 in   Partly Cloudy
1:15 AM 28.4 °F 20.4 °F 23.0 °F 80% 29.64 in 10.0 mi WNW 8.1 mph - 0.00 in   Clear
1:35 AM 28.4 °F 20.4 °F 23.0 °F 80% 29.65 in 10.0 mi West 8.1 mph - 0.00 in   Clear
1:55 AM 28.4 °F 19.1 °F 23.0 °F 80% 29.65 in 10.0 mi West 10.4 mph - 0.00 in   Clear
2:15 AM 26.6 °F 15.7 °F 23.0 °F 86% 29.65 in 10.0 mi West 12.7 mph 17.3 mph 0.00 in   Clear
2:35 AM 28.4 °F 16.6 °F 21.2 °F 74% 29.65 in 10.0 mi WNW 16.1 mph - 0.00 in   Clear
2:55 AM 28.4 °F 18.0 °F 21.2 °F 74% 29.66 in 10.0 mi WNW 12.7 mph 18.4 mph 0.00 in   Clear
3:15 AM 26.6 °F 19.1 °F 21.2 °F 80% 29.67 in 10.0 mi West 6.9 mph - 0.00 in   Clear
3:35 AM 24.8 °F 16.1 °F 21.2 °F 86% 29.68 in 10.0 mi West 8.1 mph - 0.00 in   Clear
3:55 AM 24.8 °F 14.6 °F 19.4 °F 80% 29.67 in 10.0 mi West 10.4 mph - 0.00 in   Clear
4:15 AM 23.0 °F 11.7 °F 19.4 °F 86% 29.67 in 10.0 mi WNW 11.5 mph - 0.00 in   Clear
4:35 AM 24.8 °F 14.0 °F 19.4 °F 80% 29.68 in 10.0 mi WNW 11.5 mph - 0.00 in   Clear
4:55 AM 23.0 °F 12.4 °F 19.4 °F 86% 29.68 in 10.0 mi WNW 10.4 mph - 0.00 in   Clear
5:15 AM 23.0 °F 14.7 °F 17.6 °F 80% 29.69 in 10.0 mi West 6.9 mph - 0.00 in   Clear
5:35 AM 21.2 °F 13.6 °F 17.6 °F 86% 29.69 in 10.0 mi West 5.8 mph - 0.00 in   Partly Cloudy
5:55 AM 21.2 °F 10.9 °F 17.6 °F 86% 29.69 in 10.0 mi West 9.2 mph - 0.00 in   Partly Cloudy
6:15 AM 19.4 °F 8.6 °F 17.6 °F 93% 29.69 in 10.0 mi West 9.2 mph - 0.00 in   Clear
6:35 AM 19.4 °F 8.6 °F 17.6 °F 93% 29.68 in 10.0 mi West 9.2 mph - 0.00 in   Clear
6:55 AM 17.6 °F 6.4 °F 14.0 °F 86% 29.68 in 10.0 mi WSW 9.2 mph - 0.00 in   Clear
7:15 AM 17.6 °F 6.4 °F 14.0 °F 86% 29.68 in 10.0 mi WSW 9.2 mph - 0.00 in   Clear
7:35 AM 15.8 °F 4.2 °F 14.0 °F 93% 29.68 in 10.0 mi WSW 9.2 mph - 0.00 in   Clear
7:55 AM 17.6 °F 6.4 °F 14.0 °F 86% 29.67 in 10.0 mi West 9.2 mph - 0.00 in   Clear
8:15 AM 17.6 °F 5.7 °F 14.0 °F 86% 29.67 in 10.0 mi West 10.4 mph - 0.00 in   Clear
8:35 AM 17.6 °F 6.4 °F 14.0 °F 86% 29.68 in 10.0 mi West 9.2 mph - 0.00 in   Clear
8:55 AM 17.6 °F 10.7 °F 12.2 °F 79% 29.68 in 10.0 mi West 4.6 mph - 0.00 in   Clear
9:15 AM 17.6 °F 7.3 °F 12.2 °F 79% 29.68 in 10.0 mi West 8.1 mph - 0.00 in   Clear
9:35 AM 19.4 °F 8.6 °F 12.2 °F 74% 29.68 in 10.0 mi WNW 9.2 mph - 0.00 in   Clear
9:55 AM 21.2 °F 10.1 °F 12.2 °F 68% 29.68 in 10.0 mi WNW 10.4 mph - 0.00 in   Clear
10:15 AM 21.2 °F 10.1 °F 12.2 °F 68% 29.68 in 10.0 mi WNW 10.4 mph - 0.00 in   Clear
10:35 AM 21.2 °F 13.6 °F 14.0 °F 74% 29.68 in 10.0 mi West 5.8 mph - 0.00 in   Clear
10:55 AM 21.2 °F 13.6 °F 15.8 °F 80% 29.68 in 10.0 mi West 5.8 mph - 0.00 in   Clear
11:15 AM 23.0 °F 13.9 °F 17.6 °F 80% 29.67 in 10.0 mi West 8.1 mph - 0.00 in   Clear
11:35 AM 23.0 °F 14.7 °F 17.6 °F 80% 29.66 in 10.0 mi WNW 6.9 mph - 0.00 in   Clear
11:55 AM 24.8 °F 16.9 °F 17.6 °F 74% 29.65 in 10.0 mi West 6.9 mph - 0.00 in   Clear
12:15 PM 24.8 °F 19.1 °F 17.6 °F 74% 29.64 in 10.0 mi West 4.6 mph - 0.00 in   Scattered Clouds
12:35 PM 24.8 °F 16.9 °F 17.6 °F 74% 29.63 in 10.0 mi WSW 6.9 mph - 0.00 in   Mostly Cloudy
12:55 PM 26.6 °F 21.2 °F 15.8 °F 64% 29.62 in 10.0 mi West 4.6 mph - 0.00 in   Scattered Clouds
1:15 PM 26.6 °F 20.0 °F 17.6 °F 69% 29.62 in 10.0 mi WSW 5.8 mph - 0.00 in   Scattered Clouds
1:35 PM 26.6 °F 18.2 °F 19.4 °F 74% 29.61 in 6.0 mi SW 8.1 mph - 0.00 in   Mostly Cloudy
1:55 PM 26.6 °F 20.0 °F 21.2 °F 80% 29.60 in 5.0 mi SSW 5.8 mph - 0.00 in   Overcast
2:15 PM 26.6 °F 19.1 °F 23.0 °F 86% 29.59 in 2.5 mi South 6.9 mph - 0.00 in   Overcast
2:35 PM 28.4 °F 21.2 °F 23.0 °F 80% 29.57 in 9.0 mi South 6.9 mph - 0.00 in   Overcast
2:55 PM 28.4 °F 21.2 °F 23.0 °F 80% 29.56 in 10.0 mi South 6.9 mph - 0.00 in   Overcast
3:15 PM 28.4 °F 21.2 °F 23.0 °F 80% 29.56 in 10.0 mi South 6.9 mph - 0.00 in   Partly Cloudy
3:35 PM 28.4 °F 21.2 °F 23.0 °F 80% 29.55 in 10.0 mi SSE 6.9 mph - 0.00 in   Clear
3:55 PM 28.4 °F 22.2 °F 23.0 °F 80% 29.55 in 10.0 mi SSE 5.8 mph - 0.00 in   Clear
4:15 PM 28.4 °F 22.2 °F 23.0 °F 80% 29.55 in 10.0 mi SE 5.8 mph - 0.00 in   Clear
4:35 PM 26.6 °F 20.0 °F 23.0 °F 86% 29.54 in 10.0 mi SE 5.8 mph - 0.00 in   Clear
4:55 PM 23.0 °F 15.8 °F 23.0 °F 100% 29.54 in 10.0 mi ESE 5.8 mph - 0.00 in   Clear
5:15 PM 23.0 °F 13.9 °F 21.2 °F 93% 29.53 in 10.0 mi ESE 8.1 mph - 0.00 in   Clear
5:35 PM 23.0 °F 13.9 °F 21.2 °F 93% 29.52 in 10.0 mi ESE 8.1 mph - 0.00 in   Clear
5:55 PM 21.2 °F 12.6 °F 21.2 °F 100% 29.52 in 10.0 mi ESE 6.9 mph - 0.00 in   Clear
6:15 PM 23.0 °F 13.9 °F 23.0 °F 100% 29.52 in 10.0 mi East 8.1 mph - 0.00 in   Clear
6:35 PM 23.0 °F 13.1 °F 23.0 °F 100% 29.50 in 10.0 mi East 9.2 mph - 0.00 in   Partly Cloudy
6:55 PM 24.8 °F 16.1 °F 24.8 °F 100% 29.49 in 10.0 mi East 8.1 mph - 0.00 in   Mostly Cloudy
7:15 PM 24.8 °F 16.9 °F 24.8 °F 100% 29.49 in 10.0 mi East 6.9 mph - 0.00 in   Overcast
7:35 PM 24.8 °F 16.9 °F 24.8 °F 100% 29.50 in 10.0 mi ENE 6.9 mph - 0.00 in   Overcast
7:55 PM 23.0 °F 14.7 °F 23.0 °F 100% 29.49 in 10.0 mi ENE 6.9 mph - 0.00 in   Overcast
8:15 PM 23.0 °F 14.7 °F 23.0 °F 100% 29.48 in 10.0 mi ENE 6.9 mph - 0.00 in   Overcast
8:35 PM 23.0 °F 15.8 °F 23.0 °F 100% 29.48 in 8.0 mi NE 5.8 mph - 0.00 in   Mostly Cloudy
8:55 PM 23.0 °F 17.0 °F 23.0 °F 100% 29.49 in 10.0 mi NE 4.6 mph - 0.00 in   Overcast
9:15 PM 23.0 °F 17.0 °F 23.0 °F 100% 29.48 in 10.0 mi ENE 4.6 mph - 0.00 in   Mostly Cloudy
9:35 PM 23.0 °F - 23.0 °F 100% 29.50 in 8.0 mi Calm Calm - 0.00 in   Mostly Cloudy
9:55 PM 23.0 °F 15.8 °F 23.0 °F 100% 29.50 in 4.0 mi North 5.8 mph - 0.00 in   Mostly Cloudy
10:15 PM 23.0 °F 15.8 °F 23.0 °F 100% 29.51 in 9.0 mi North 5.8 mph - 0.00 in   Overcast
10:35 PM 23.0 °F 14.7 °F 23.0 °F 100% 29.52 in 10.0 mi NNW 6.9 mph - 0.00 in   Overcast
10:55 PM 23.0 °F 14.7 °F 23.0 °F 100% 29.54 in 10.0 mi NW 6.9 mph - 0.00 in   Overcast
11:15 PM 23.0 °F 15.8 °F 23.0 °F 100% 29.56 in 5.0 mi NW 5.8 mph - 0.00 in   Overcast
11:35 PM 24.8 °F 17.9 °F 23.0 °F 93% 29.56 in 3.0 mi WNW 5.8 mph - 0.00 in   Overcast
11:55 PM 26.6 °F 15.7 °F 24.8 °F 93% 29.58 in 10.0 mi NW 12.7 mph - 0.00 in   Mostly Cloudy